Location: Sawmill Trailhead
(33.5800°N, 116.4497°W)
Time: 13:37:41
(UTC-08:00)

OTV 5 (USA 277) - Visible Passes

Search period start: 15 February 2019 00:00
Search period end: 25 February 2019 00:00
Orbit: 342 x 346 km, 54.5° (Epoch: 09 February)

Date Brightness Start Highest point End Pass type
(mag) Time Alt. Az. Time Alt. Az. Time Alt. Az.
15 Feb ? 04:58:38 13° N 04:59:50 16° NE 05:01:45 10° E visible
16 Feb ? 05:21:56 21° NNW 05:23:37 60° NE 05:26:27 10° SE visible
17 Feb ? 04:13:55 11° ENE 04:13:55 11° ENE 04:14:06 10° E visible
17 Feb ? 05:45:23 15° WNW 05:47:10 26° SW 05:49:37 10° S visible
18 Feb ? 04:37:30 24° ESE 04:37:30 24° ESE 04:38:52 10° SE visible
19 Feb ? 05:01:14 16° S 05:01:14 16° S 05:02:06 10° S visible
20 Feb ? 18:35:18 10° SSE 18:35:58 12° SE 18:35:58 12° SE visible
21 Feb ? 18:57:27 10° SSW 18:59:51 52° S 18:59:51 52° S visible
22 Feb ? 19:21:25 10° WSW 19:23:36 26° WNW 19:23:36 26° WNW visible
23 Feb ? 18:09:54 10° SSW 18:12:43 57° SE 18:15:34 10° NE visible
24 Feb ? 18:33:48 10° WSW 18:36:22 29° NW 18:38:57 10° NNE visible
